DLH2LV EDXW-EDJA

Flight info

Callsign DLH2LV
Flight time N/A
Altitude 37000
Route OLDIP1B/32 OLDIP DCT BADOS DCT OMWEG Y348 ELSOB N850 GISEM/N0397F230 N850 BOMBI L603 KOSEK Z74 HAREM T104 DKB Z818 ELVAG Z76 ABGAS/N0403F240 Z79 LUPOL LUPOL1C
Aircraft A319/M-SDE3FGHIRWY/LB1

Departure

Time N/A
Airport Westerland Sylt Airport (EDXW)

Arrival

Time 2026-04-24 19:45
Airport Memmingen Allgau Airport (EDJA)
Time Latitude Longitude Altitude Speed Heading
2026-04-24 18:54 52.94836 8.47376 37174 ft 458 kts 181°
2026-04-24 18:55 52.85290 8.48516 37181 ft 459 kts 181°
2026-04-24 18:56 52.78918 8.49287 37180 ft 459 kts 181°
2026-04-24 18:56 52.72546 8.50053 37196 ft 459 kts 181°
2026-04-24 18:57 52.66176 8.50821 37172 ft 459 kts 181°
2026-04-24 18:57 52.59803 8.51575 37174 ft 459 kts 181°
2026-04-24 18:58 52.53433 8.52312 37172 ft 459 kts 181°
2026-04-24 18:58 52.47097 8.53043 37172 ft 460 kts 181°
2026-04-24 18:59 52.41122 8.53734 37162 ft 460 kts 181°
2026-04-24 18:59 52.34739 8.54487 37170 ft 460 kts 181°
2026-04-24 19:00 52.28360 8.55255 37165 ft 460 kts 181°
2026-04-24 19:00 52.21979 8.56013 37170 ft 460 kts 181°
2026-04-24 19:01 52.15602 8.56758 37162 ft 459 kts 181°
2026-04-24 19:01 52.09223 8.57500 37172 ft 459 kts 181°
2026-04-24 19:02 52.03929 8.58101 37175 ft 459 kts 181°
2026-04-24 19:02 51.96488 8.58956 37160 ft 459 kts 180°
2026-04-24 19:03 51.90127 8.59689 37179 ft 458 kts 181°
2026-04-24 19:03 51.83819 8.60411 37186 ft 457 kts 181°
2026-04-24 19:04 51.77472 8.61137 37195 ft 457 kts 181°
2026-04-24 19:04 51.71130 8.61859 37180 ft 457 kts 181°
2026-04-24 19:05 51.64799 8.62572 37196 ft 456 kts 181°
2026-04-24 19:05 51.58474 8.63287 37197 ft 455 kts 181°
2026-04-24 19:06 51.52156 8.63999 37199 ft 455 kts 181°
2026-04-24 19:06 51.45844 8.64709 37184 ft 454 kts 181°
2026-04-24 19:07 51.39543 8.65420 37190 ft 454 kts 181°
2026-04-24 19:07 51.34267 8.66017 37187 ft 454 kts 181°
2026-04-24 19:08 51.26946 8.66837 37184 ft 454 kts 181°
2026-04-24 19:08 51.20651 8.67533 37166 ft 453 kts 181°
2026-04-24 19:09 51.14353 8.68240 37170 ft 453 kts 181°
2026-04-24 19:09 51.08061 8.68939 37177 ft 453 kts 181°
2026-04-24 19:10 51.01776 8.69630 37180 ft 453 kts 181°
2026-04-24 19:10 50.95491 8.70330 37167 ft 453 kts 181°
2026-04-24 19:11 50.89209 8.71022 37175 ft 452 kts 181°
2026-04-24 19:11 50.82926 8.71707 37175 ft 452 kts 181°
2026-04-24 19:12 50.76646 8.72389 37181 ft 452 kts 181°
2026-04-24 19:12 50.70370 8.73078 37177 ft 452 kts 181°
2026-04-24 19:13 50.65153 8.73644 37174 ft 452 kts 181°
2026-04-24 19:13 50.57815 8.74435 37170 ft 452 kts 181°
2026-04-24 19:14 50.51535 8.75115 37164 ft 452 kts 181°
2026-04-24 19:14 50.45268 8.75800 37165 ft 451 kts 181°
2026-04-24 19:15 50.39001 8.76477 37171 ft 451 kts 181°
2026-04-24 19:15 50.35867 8.76813 36989 ft 453 kts 181°
2026-04-24 19:15 50.32741 8.77149 36542 ft 448 kts 181°
2026-04-24 19:15 50.29647 8.77485 36198 ft 445 kts 180°
2026-04-24 19:16 50.23458 8.78147 35693 ft 446 kts 180°
2026-04-24 19:16 50.20357 8.78476 35444 ft 447 kts 180°
2026-04-24 19:16 50.17253 8.78804 35197 ft 447 kts 180°
2026-04-24 19:17 50.14139 8.79132 34951 ft 448 kts 180°
2026-04-24 19:17 50.11029 8.79462 34704 ft 449 kts 180°
2026-04-24 19:17 50.07948 8.79817 34461 ft 450 kts 177°
2026-04-24 19:17 50.04845 8.80711 34221 ft 455 kts 168°
2026-04-24 19:18 50.01837 8.82324 33960 ft 459 kts 162°
2026-04-24 19:18 49.98860 8.84131 33681 ft 460 kts 162°
2026-04-24 19:18 49.95879 8.85969 33413 ft 462 kts 159°
2026-04-24 19:18 49.93034 8.88359 33138 ft 468 kts 150°
2026-04-24 19:19 49.90454 8.91460 32864 ft 473 kts 140°
2026-04-24 19:19 49.88193 8.95193 32601 ft 476 kts 134°
2026-04-24 19:19 49.86006 8.99053 32340 ft 477 kts 134°
2026-04-24 19:19 49.83808 9.02911 32070 ft 478 kts 134°
2026-04-24 19:20 49.81605 9.06758 31817 ft 477 kts 134°
2026-04-24 19:20 49.79392 9.10599 31562 ft 478 kts 134°
2026-04-24 19:20 49.77178 9.14434 31304 ft 479 kts 134°
2026-04-24 19:20 49.74953 9.18285 31053 ft 480 kts 134°
2026-04-24 19:21 49.72734 9.22140 30810 ft 481 kts 134°
2026-04-24 19:21 49.70526 9.26025 30561 ft 482 kts 133°
2026-04-24 19:21 49.68324 9.29934 30322 ft 483 kts 133°
2026-04-24 19:21 49.66126 9.33851 30058 ft 483 kts 133°
2026-04-24 19:22 49.64637 9.36504 29869 ft 484 kts 133°
2026-04-24 19:22 49.61709 9.41690 29423 ft 485 kts 133°
2026-04-24 19:22 49.59486 9.45599 28731 ft 485 kts 133°
2026-04-24 19:22 49.57250 9.49517 28049 ft 486 kts 133°
2026-04-24 19:23 49.55024 9.53414 27386 ft 481 kts 133°
2026-04-24 19:23 49.52832 9.57252 26762 ft 475 kts 133°
2026-04-24 19:23 49.50656 9.61061 26127 ft 471 kts 133°
2026-04-24 19:23 49.48504 9.64825 25583 ft 466 kts 133°
2026-04-24 19:24 49.46359 9.68566 25336 ft 468 kts 133°
2026-04-24 19:24 49.44162 9.72387 25097 ft 483 kts 133°
2026-04-24 19:24 49.41925 9.76274 24859 ft 487 kts 133°
2026-04-24 19:24 49.39676 9.80183 24622 ft 487 kts 133°
2026-04-24 19:25 49.37435 9.84076 24391 ft 486 kts 133°
2026-04-24 19:25 49.35192 9.87965 24159 ft 488 kts 132°
2026-04-24 19:25 49.32917 9.91895 23927 ft 495 kts 132°
2026-04-24 19:25 49.30623 9.95846 23686 ft 495 kts 132°
2026-04-24 19:26 49.29107 9.98449 23510 ft 494 kts 132°
2026-04-24 19:26 49.26673 10.02124 23230 ft 490 kts 143°
2026-04-24 19:26 49.23787 10.04828 22960 ft 485 kts 157°
2026-04-24 19:26 49.19637 10.07308 22642 ft 482 kts 161°
2026-04-24 19:27 49.17520 10.08549 22457 ft 481 kts 160°
2026-04-24 19:27 49.14437 10.10520 21950 ft 479 kts 158°
2026-04-24 19:27 49.11425 10.12649 21315 ft 474 kts 155°
2026-04-24 19:27 49.08481 10.14862 20690 ft 470 kts 154°
2026-04-24 19:28 49.05571 10.17086 20068 ft 465 kts 154°
2026-04-24 19:28 49.02685 10.19265 19479 ft 462 kts 154°
2026-04-24 19:28 48.99804 10.21390 18884 ft 458 kts 155°
2026-04-24 19:28 48.96931 10.23459 18281 ft 454 kts 155°
2026-04-24 19:29 48.90987 10.26364 16994 ft 446 kts 166°
2026-04-24 19:29 48.87998 10.27554 16368 ft 442 kts 166°
2026-04-24 19:29 48.85034 10.28749 15739 ft 439 kts 166°
2026-04-24 19:30 48.82091 10.29945 15122 ft 436 kts 165°
2026-04-24 19:30 48.79169 10.31138 14523 ft 433 kts 165°
2026-04-24 19:30 48.76268 10.32321 13944 ft 431 kts 165°
2026-04-24 19:30 48.73385 10.33494 13294 ft 427 kts 165°
2026-04-24 19:31 48.70528 10.34655 12684 ft 422 kts 165°
2026-04-24 19:31 48.67701 10.35799 12246 ft 419 kts 166°
2026-04-24 19:31 48.64890 10.36935 11760 ft 416 kts 166°
2026-04-24 19:31 48.62068 10.37704 11313 ft 410 kts 179°
2026-04-24 19:32 48.59250 10.37224 11058 ft 406 kts 196°
2026-04-24 19:32 48.56685 10.35529 10818 ft 401 kts 214°
2026-04-24 19:32 48.54509 10.32931 10581 ft 398 kts 222°
2026-04-24 19:32 48.52408 10.30217 10342 ft 397 kts 222°
2026-04-24 19:33 48.50316 10.27513 10159 ft 395 kts 222°
2026-04-24 19:33 48.48229 10.24821 10162 ft 395 kts 222°
2026-04-24 19:33 48.46166 10.22167 10168 ft 395 kts 222°
2026-04-24 19:33 48.44070 10.19481 10164 ft 395 kts 222°
2026-04-24 19:34 48.41973 10.16796 10165 ft 395 kts 222°
2026-04-24 19:34 48.39878 10.14113 10165 ft 395 kts 222°
2026-04-24 19:34 48.37783 10.11430 10163 ft 395 kts 222°
2026-04-24 19:34 48.35726 10.08803 10158 ft 376 kts 222°
2026-04-24 19:35 48.33790 10.06339 10165 ft 352 kts 222°
2026-04-24 19:35 48.31973 10.04027 10164 ft 331 kts 222°
2026-04-24 19:35 48.30263 10.01851 10164 ft 313 kts 222°
2026-04-24 19:35 48.28648 9.99798 10164 ft 298 kts 222°
2026-04-24 19:36 48.27078 9.97804 10164 ft 294 kts 222°
2026-04-24 19:36 48.25515 9.95821 10007 ft 294 kts 222°
2026-04-24 19:36 48.23960 9.93857 9849 ft 292 kts 220°
2026-04-24 19:36 48.22218 9.92288 9715 ft 294 kts 204°
2026-04-24 19:37 48.20251 9.91495 9550 ft 294 kts 188°
2026-04-24 19:37 48.18220 9.91514 9189 ft 291 kts 176°
2026-04-24 19:37 48.16208 9.91778 8798 ft 289 kts 176°
2026-04-24 19:37 48.14212 9.92030 8393 ft 287 kts 177°
2026-04-24 19:38 48.12230 9.92273 7992 ft 285 kts 177°
2026-04-24 19:38 48.10262 9.92511 7577 ft 283 kts 177°
2026-04-24 19:38 48.08305 9.92746 7161 ft 281 kts 177°
2026-04-24 19:38 48.06363 9.92979 6739 ft 280 kts 177°
2026-04-24 19:39 48.04427 9.93216 6303 ft 278 kts 177°
2026-04-24 19:39 48.02505 9.93452 5912 ft 275 kts 177°
2026-04-24 19:39 48.00628 9.93683 5650 ft 266 kts 176°
2026-04-24 19:39 47.98830 9.94100 5400 ft 258 kts 165°
2026-04-24 19:40 47.97195 9.95113 5153 ft 251 kts 151°
2026-04-24 19:40 47.95728 9.96427 5015 ft 240 kts 149°
2026-04-24 19:40 47.94343 9.97662 4998 ft 224 kts 150°
2026-04-24 19:40 47.93098 9.98893 5030 ft 206 kts 140°
2026-04-24 19:41 47.92215 10.00469 5002 ft 191 kts 121°
2026-04-24 19:41 47.91727 10.02227 4929 ft 183 kts 104°
2026-04-24 19:41 47.91593 10.04091 4795 ft 180 kts 87°
2026-04-24 19:41 47.91809 10.05902 4609 ft 176 kts 70°
2026-04-24 19:42 47.92338 10.07534 4397 ft 174 kts 57°
2026-04-24 19:42 47.92945 10.09051 4176 ft 166 kts 57°
2026-04-24 19:42 47.93515 10.10480 3966 ft 156 kts 57°
2026-04-24 19:42 47.94053 10.11827 3765 ft 147 kts 57°
2026-04-24 19:43 47.94565 10.13109 3569 ft 142 kts 57°
2026-04-24 19:43 47.95066 10.14366 3395 ft 140 kts 57°
2026-04-24 19:43 47.95558 10.15600 3204 ft 138 kts 57°
2026-04-24 19:43 47.96046 10.16822 3023 ft 136 kts 57°
2026-04-24 19:44 47.96531 10.18041 2813 ft 137 kts 58°
2026-04-24 19:44 47.97019 10.19257 2627 ft 137 kts 58°
2026-04-24 19:44 47.97504 10.20473 2430 ft 136 kts 58°
2026-04-24 19:44 47.97985 10.21691 2253 ft 136 kts 59°
2026-04-24 19:45 47.98465 10.22899 2099 ft 131 kts 58°
2026-04-24 19:45 47.98808 10.23760 2077 ft 32 kts 59°
2026-04-24 19:45 47.98847 10.23770 2074 ft 5 kts 322°
2026-04-24 19:45 47.98879 10.23733 2078 ft 7 kts 323°
2026-04-24 19:46 47.98915 10.23660 2075 ft 11 kts 280°
2026-04-24 19:46 47.98891 10.23544 2077 ft 10 kts 251°
2026-04-24 19:46 47.98873 10.23464 2079 ft 6 kts 251°
2026-04-24 19:46 47.98860 10.23411 2082 ft 5 kts 248°
2026-04-24 19:47 47.98845 10.23353 2081 ft 7 kts 249°
2026-04-24 19:47 47.98867 10.23308 2080 ft 8 kts 344°
2026-04-24 19:47 47.98889 10.23329 2078 ft 2 kts 49°
2026-04-24 19:47 47.98891 10.23331 2078 ft 0 kts 49°